Weather History for Siemreap, Cambodia

Change the Weather History Date:

Tuesday, January 1, 2013

  Actual Average Record
Temperature  
Mean Temperature 77 °F -  
Max Temperature 86 °F - - ()
Min Temperature 68 °F - - ()
Cooling Degree Days 12    
Growing Degree Days 27 (Base 50)    
Moisture  
Dew Point 64 °F    
Average Humidity 62    
Maximum Humidity 88    
Minimum Humidity 43    
Precipitation  
Precipitation 0.00 in - - ()
Sea Level Pressure  
Sea Level Pressure 29.88 in    
Wind  
Wind Speed 4 mph ()    
Max Wind Speed 12 mph    
Max Gust Speed -    
Visibility 5.9 miles    
Events      
T = Trace of Precipitation, MM = Missing Value Source: Averaged Metar Reports

Daily Weather History Graph

Daily Weather History Graph

Search for Another Location

Airport:

Trip Planner

Search our weather history database for the weather conditions in past years. The results will help you decide how hot, cold, wet, or windy it might be!

Date:

Astronomy

Jan. 01, 2013 Rise Set
Actual Time 6:27 AM ICT 5:48 PM ICT
Civil Twilight 6:04 AM ICT 6:11 PM ICT
Nautical Twilight 5:37 AM ICT 6:38 PM ICT
Astronomical Twilight 5:11 AM ICT 7:04 PM ICT
Moon 9:06 PM ICT (1/1) 8:59 AM ICT (1/1)
Length of Visible Light 12h 07m
Length of Day
11h 21m
Waning Gibbous, 87% of the Moon is Illuminated
Jan 1
Waning Gibbous
Jan 5
Last Quarter
Jan 12
New
Jan 19
First Quarter
Jan 27
Full

Hourly Weather History & Observations

Time (ICT) Temp. Heat Index Dew Point Humidity Pressure Visibility Wind Dir Wind Speed Gust Speed Precip Events Conditions
12:00 AM 71.6 °F - 60.8 °F 69% 29.86 in 5.6 mi Variable 1.2 mph - N/A   Partly Cloudy
12:30 AM 71.6 °F - 62.6 °F 73% 29.86 in 5.6 mi Calm Calm - N/A   Partly Cloudy
1:00 AM 68.0 °F - 64.4 °F 88% 29.86 in 5.6 mi WSW 3.5 mph - N/A   Partly Cloudy
7:00 AM 68.0 °F - 62.6 °F 83% 29.92 in 5.6 mi North 3.5 mph - N/A   Scattered Clouds
7:30 AM 68.0 °F - 60.8 °F 78% 29.92 in 6.2 mi NE 5.8 mph - N/A   Scattered Clouds
8:00 AM 69.8 °F - 60.8 °F 73% 29.95 in 6.2 mi ENE 4.6 mph - N/A   Scattered Clouds
8:30 AM 71.6 °F - 60.8 °F 69% 29.95 in 6.2 mi East 3.5 mph - N/A   Scattered Clouds
9:00 AM 75.2 °F - 60.8 °F 61% 29.95 in 6.2 mi East 3.5 mph - N/A   Scattered Clouds
9:30 AM 77.0 °F - 60.8 °F 57% 29.95 in 6.2 mi SSE 3.5 mph - N/A   Scattered Clouds
10:00 AM 77.0 °F - 60.8 °F 57% 29.95 in - WSW 3.5 mph - N/A   Clear
10:30 AM 80.6 °F 81.5 °F 60.8 °F 51% 29.95 in - North 6.9 mph - N/A   Clear
11:00 AM 80.6 °F 81.5 °F 60.8 °F 51% 29.95 in - SW 3.5 mph - N/A   Clear
11:30 AM 82.4 °F 82.9 °F 60.8 °F 48% 29.92 in - SSE 3.5 mph - N/A   Clear
12:30 PM 84.2 °F 84.4 °F 60.8 °F 45% 29.89 in 6.2 mi East 5.8 mph - N/A   Scattered Clouds
1:00 PM 86.0 °F 86.1 °F 60.8 °F 43% 29.86 in 6.2 mi East 6.9 mph - N/A   Scattered Clouds
1:30 PM 86.0 °F 86.1 °F 60.8 °F 43% 29.86 in 6.2 mi SSE 3.5 mph - N/A   Scattered Clouds
2:00 PM 86.0 °F 87.3 °F 64.4 °F 48% 29.83 in 6.2 mi WSW 6.9 mph - N/A   Scattered Clouds
2:30 PM 86.0 °F 87.3 °F 64.4 °F 48% 29.83 in 6.2 mi SW 11.5 mph - N/A   Scattered Clouds
3:00 PM 86.0 °F 87.3 °F 64.4 °F 48% 29.83 in 6.2 mi SW 8.1 mph - N/A   Scattered Clouds
3:30 PM 84.2 °F 85.6 °F 64.4 °F 51% 29.80 in 6.2 mi SW 6.9 mph - N/A   Scattered Clouds
4:00 PM 84.2 °F 85.6 °F 64.4 °F 51% 29.80 in 6.2 mi West 6.9 mph - N/A   Scattered Clouds
4:30 PM 84.2 °F 85.6 °F 64.4 °F 51% 29.80 in 6.2 mi West 4.6 mph - N/A   Scattered Clouds
5:00 PM 82.4 °F 83.9 °F 64.4 °F 54% 29.83 in 6.2 mi WSW 4.6 mph - N/A   Scattered Clouds
5:30 PM 82.4 °F 84.6 °F 66.2 °F 58% 29.83 in 6.2 mi West 3.5 mph - N/A   Scattered Clouds
6:00 PM 80.6 °F 82.7 °F 66.2 °F 61% 29.83 in 6.2 mi SSW 3.5 mph - N/A   Scattered Clouds
6:30 PM 78.8 °F - 68.0 °F 69% 29.86 in 6.2 mi SW 3.5 mph - N/A   Scattered Clouds
8:00 PM 78.8 °F - 66.2 °F 65% 29.89 in 5.6 mi NW 2.3 mph - N/A   Unknown
8:30 PM 77.0 °F - 66.2 °F 69% 29.89 in 5.6 mi NNW 4.6 mph - N/A   Unknown
9:00 PM 77.0 °F - 66.2 °F 69% 29.89 in 5.6 mi NNW 11.5 mph - N/A   Unknown
9:30 PM 77.0 °F - 66.2 °F 69% 29.89 in 5.6 mi North 5.8 mph - N/A   Unknown
10:00 PM 75.2 °F - 66.2 °F 73% 29.89 in 5.6 mi NNW 4.6 mph - N/A   Unknown
10:30 PM 75.2 °F - 66.2 °F 73% 29.89 in 5.6 mi North 3.5 mph - N/A   Unknown
11:00 PM 75.2 °F - 66.2 °F 73% 29.89 in 5.6 mi North 6.9 mph - N/A   Unknown
11:30 PM 75.2 °F - 66.2 °F 73% 29.89 in 5.0 mi NNE 3.5 mph - N/A   Unknown